KA5FVT Weather Reports


Display with metric or nautical units.
time (UTC)temp
F
wind
direction
speed
MPH
gust
MPH
rain 1hr
in
rain 24hr
in
rain mn
in
humidity
%
barometer
mb
20260831164456 92 186 0.0 2.0 0.00 0.00 0.00 62 1016.5
20260831163955 92 190 0.0 2.0 0.00 0.00 0.00 63 1016.5
20260831163455 91 190 0.0 2.0 0.00 0.00 0.00 64 1016.5
20260831162955 90 190 1.0 2.0 0.00 0.00 0.00 67 1016.4
20260831162455 90 190 0.0 2.0 0.00 0.00 0.00 67 1016.5
20260831161955 89 178 0.0 2.0 0.00 0.00 0.00 67 1016.6
20260831161456 89 173 1.0 4.0 0.00 0.00 0.00 67 1016.7
20260831160958 89 173 1.0 1.0 0.00 0.00 0.00 69 1016.7
20260831160455 88 176 1.0 2.0 0.00 0.00 0.00 70 1016.7
20260831155955 88 176 0.0 2.0 0.00 0.00 0.00 69 1016.7
20260831155456 88 171 1.0 2.0 0.00 0.00 0.00 70 1016.6
20260831154955 87 188 0.0 1.0 0.00 0.00 0.00 72 1016.6
20260831154455 87 188 0.0 2.0 0.00 0.00 0.00 73 1016.5
20260831153955 86 188 1.0 1.0 0.00 0.00 0.00 74 1016.6
20260831153459 86 188 1.0 2.0 0.00 0.00 0.00 71 1016.5
20260831152955 85 165 0.0 1.0 0.00 0.00 0.00 70 1016.3
20260831152455 85 165 0.0 2.0 0.00 0.00 0.00 73 1016.5
20260831151955 85 165 0.0 1.0 0.00 0.00 0.00 76 1016.4
20260831151455 84 165 0.0 0.0 0.00 0.00 0.00 75 1016.4
20260831150955 84 165 0.0 0.0 0.00 0.00 0.00 77 1016.2
20260831150455 84 165 0.0 0.0 0.00 0.00 0.00 79 1016.3
20260831145956 84 165 0.0 0.0 0.00 0.00 0.00 82 1016.3
20260831145455 84 165 0.0 0.0 0.00 0.00 0.00 82 1016.3
20260831144955 84 165 0.0 0.0 0.00 0.00 0.00 82 1016.4
20260831144455 84 165 0.0 0.0 0.00 0.00 0.00 83 1016.4
20260831143958 84 165 0.0 0.0 0.00 0.00 0.00 83 1016.1
20260831143455 84 165 0.0 0.0 0.00 0.00 0.00 84 1016.3
20260831142955 83 165 0.0 0.0 0.00 0.00 0.00 83 1016.2
20260831142455 83 165 0.0 0.0 0.00 0.00 0.00 84 1016.3
20260831141955 83 165 0.0 1.0 0.00 0.00 0.00 85 1016.2
20260831141458 83 165 1.0 2.0 0.00 0.00 0.00 85 1016.2
20260831140955 83 165 0.0 1.0 0.00 0.00 0.00 86 1016.1
20260831140455 82 165 1.0 2.0 0.00 0.00 0.00 86 1016.1
20260831135955 82 165 0.0 0.0 0.00 0.00 0.00 87 1016.1
20260831135455 82 165 0.0 1.0 0.00 0.00 0.00 88 1016.0
20260831134955 81 165 0.0 1.0 0.00 0.00 0.00 88 1015.9
20260831134458 81 165 0.0 0.0 0.00 0.00 0.00 90 1016.0
20260831133956 80 165 0.0 0.0 0.00 0.00 0.00 90 1015.9
20260831133455 80 165 0.0 0.0 0.00 0.00 0.00 91 1015.8
20260831132958 80 165 0.0 0.0 0.00 0.00 0.00 91 1015.8
20260831132455 79 165 0.0 0.0 0.00 0.00 0.00 92 1015.7
20260831131955 79 165 0.0 0.0 0.00 0.00 0.00 93 1015.6
20260831131455 79 165 0.0 0.0 0.00 0.00 0.00 93 1015.6
20260831130955 79 165 0.0 0.0 0.00 0.00 0.00 94 1015.6
20260831130455 78 165 0.0 0.0 0.00 0.00 0.00 94 1015.7
20260831125955 78 165 0.0 0.0 0.00 0.00 0.00 94 1015.6
20260831125455 78 165 0.0 0.0 0.00 0.00 0.00 94 1015.6
20260831124955 78 165 0.0 0.0 0.00 0.00 0.00 94 1015.5
20260831124455 78 165 0.0 0.0 0.00 0.00 0.00 93 1015.5
20260831123955 78 165 0.0 0.0 0.00 0.00 0.00 93 1015.4
20260831123455 78 165 0.0 0.0 0.00 0.00 0.00 93 1015.3
20260831122955 78 165 0.0 0.0 0.00 0.00 0.00 93 1015.5
20260831122455 78 165 0.0 0.0 0.00 0.00 0.00 93 1015.4
20260831121955 78 165 0.0 0.0 0.00 0.00 0.00 93 1015.2
20260831121458 78 165 0.0 0.0 0.00 0.00 0.00 93 1015.0
20260831120955 78 165 0.0 0.0 0.00 0.00 0.00 93 1015.0
20260831120455 78 165 0.0 0.0 0.00 0.00 0.00 93 1014.9
20260831115955 78 165 0.0 0.0 0.00 0.00 0.00 93 1014.9
20260831115456 78 165 0.0 0.0 0.00 0.00 0.00 93 1014.8
20260831114955 78 165 0.0 0.0 0.00 0.00 0.00 93 1014.8
20260831114455 78 165 0.0 0.0 0.00 0.00 0.00 92 1014.7
20260831113955 78 165 0.0 0.0 0.00 0.00 0.00 92 1014.8
20260831113455 78 165 0.0 0.0 0.00 0.00 0.00 92 1014.7
20260831112955 78 165 0.0 0.0 0.00 0.00 0.00 92 1014.7
20260831112455 78 165 0.0 0.0 0.00 0.00 0.00 92 1014.8
20260831111955 78 165 0.0 0.0 0.00 0.00 0.00 92 1014.7
20260831111458 78 165 0.0 0.0 0.00 0.00 0.00 92 1014.7
20260831110955 78 165 0.0 0.0 0.00 0.00 0.00 92 1014.8
20260831110455 78 165 0.0 0.0 0.00 0.00 0.00 92 1014.7
20260831105955 78 165 0.0 0.0 0.00 0.00 0.00 92 1014.6
20260831105456 78 165 0.0 0.0 0.00 0.00 0.00 92 1014.7
20260831104955 78 165 0.0 0.0 0.00 0.00 0.00 92 1014.7
20260831104455 78 165 0.0 0.0 0.00 0.00 0.00 91 1014.6
20260831103955 79 165 0.0 0.0 0.00 0.00 0.00 91 1014.6
20260831103455 79 165 0.0 0.0 0.00 0.00 0.00 91 1014.6
20260831102955 79 165 0.0 0.0 0.00 0.00 0.00 91 1014.7
20260831102455 79 165 0.0 0.0 0.00 0.00 0.00 91 1014.7
20260831101955 79 165 0.0 0.0 0.00 0.00 0.00 91 1014.9
20260831101455 79 165 0.0 0.0 0.00 0.00 0.00 91 1015.0
20260831100956 79 165 0.0 0.0 0.00 0.00 0.00 91 1015.0
20260831100455 79 165 0.0 0.0 0.00 0.00 0.00 91 1015.0
20260831095955 79 165 0.0 0.0 0.00 0.00 0.00 91 1015.0
20260831095458 79 165 0.0 0.0 0.00 0.00 0.00 90 1014.9
20260831094954 79 165 0.0 0.0 0.00 0.00 0.00 90 1014.9
20260831094455 79 165 0.0 0.0 0.00 0.00 0.00 90 1014.8
20260831093955 79 165 0.0 0.0 0.00 0.00 0.00 90 1014.9
20260831093458 79 165 0.0 0.0 0.00 0.00 0.00 89 1014.8
20260831092955 79 165 0.0 0.0 0.00 0.00 0.00 89 1014.8
20260831092455 79 165 0.0 0.0 0.00 0.00 0.00 89 1014.7
20260831091955 79 165 0.0 0.0 0.00 0.00 0.00 89 1014.7
20260831091455 79 165 0.0 0.0 0.00 0.00 0.00 89 1014.7
20260831090955 79 165 0.0 0.0 0.00 0.00 0.00 89 1014.7
20260831090455 80 165 0.0 0.0 0.00 0.00 0.00 89 1014.6
20260831085956 80 165 0.0 0.0 0.00 0.00 0.00 89 1014.6
20260831085455 80 165 0.0 0.0 0.00 0.00 0.00 89 1014.8
20260831084955 80 165 0.0 0.0 0.00 0.00 0.00 89 1014.9
20260831084455 80 165 0.0 0.0 0.00 0.00 0.00 88 1014.8
20260831083954 80 165 0.0 0.0 0.00 0.00 0.00 88 1014.7
20260831083455 80 165 0.0 0.0 0.00 0.00 0.00 88 1014.7
20260831082955 80 165 0.0 0.0 0.00 0.00 0.00 88 1014.8
20260831082456 80 165 0.0 0.0 0.00 0.00 0.00 88 1014.9
20260831081955 80 165 0.0 0.0 0.00 0.00 0.00 87 1014.9
20260831081455 80 165 0.0 0.0 0.00 0.00 0.00 87 1014.9
20260831080955 80 165 0.0 0.0 0.00 0.00 0.00 87 1015.0
20260831080455 80 165 0.0 0.0 0.00 0.00 0.00 87 1015.1
20260831075959 81 165 0.0 0.0 0.00 0.00 0.00 87 1014.9
20260831075455 81 165 0.0 0.0 0.00 0.00 0.00 87 1014.8
20260831074955 81 165 0.0 0.0 0.00 0.00 0.00 86 1014.9
20260831074454 81 165 0.0 0.0 0.00 0.00 0.00 86 1014.8
20260831073958 81 165 0.0 0.0 0.00 0.00 0.00 86 1015.1
20260831073458 81 165 0.0 0.0 0.00 0.00 0.00 85 1014.8
20260831072955 81 165 0.0 0.0 0.00 0.00 0.00 85 1014.8
20260831072455 81 165 0.0 0.0 0.00 0.00 0.00 85 1015.1
20260831071955 81 165 0.0 0.0 0.00 0.00 0.00 85 1015.1
20260831071455 81 165 0.0 0.0 0.00 0.00 0.00 85 1015.1
20260831070958 81 165 0.0 0.0 0.00 0.00 0.00 84 1015.1
20260831070455 81 165 0.0 0.0 0.00 0.00 0.00 84 1015.0
20260831065956 82 165 0.0 0.0 0.00 0.00 0.00 84 1015.1
20260831065455 82 165 0.0 0.0 0.00 0.00 0.00 84 1015.1
20260831064955 82 165 0.0 0.0 0.00 0.00 0.00 84 1015.2
20260831064455 82 165 0.0 0.0 0.00 0.00 0.00 83 1015.1
20260831063955 82 165 0.0 0.0 0.00 0.00 0.00 83 1015.1
20260831063458 82 165 0.0 0.0 0.00 0.00 0.00 83 1015.0
20260831062955 82 165 0.0 0.0 0.00 0.00 0.00 82 1015.1
20260831062455 82 165 0.0 0.0 0.00 0.00 0.00 82 1015.2
20260831061958 82 165 0.0 0.0 0.00 0.00 0.00 82 1015.3
20260831061455 82 165 0.0 0.0 0.00 0.00 0.00 82 1015.2
20260831060955 83 165 0.0 0.0 0.00 0.00 0.00 81 1015.2
20260831060454 83 165 0.0 0.0 0.00 0.00 0.00 81 1015.2
20260831055955 83 165 0.0 0.0 0.00 0.00 0.00 81 1015.2
20260831055455 83 165 0.0 0.0 0.00 0.00 0.00 81 1015.3
20260831054955 83 165 0.0 0.0 0.00 0.00 0.00 80 1015.3
20260831054455 83 165 0.0 0.0 0.00 0.00 0.00 80 1015.2
20260831053958 83 165 0.0 0.0 0.00 0.00 0.00 80 1015.0
20260831053455 83 165 0.0 0.0 0.00 0.00 0.00 80 1015.1
20260831052958 83 165 0.0 0.0 0.00 0.00 0.00 80 1015.1
20260831052454 83 165 0.0 0.0 0.00 0.00 0.00 79 1015.2
20260831051955 83 165 0.0 0.0 0.00 0.00 0.00 79 1015.2
20260831051454 84 165 0.0 0.0 0.00 0.00 0.00 78 1015.1
20260831050955 84 165 0.0 0.0 0.00 0.00 0.00 78 1014.9
20260831050455 84 165 0.0 0.0 0.00 0.00 0.00 78 1015.0
20260831045956 84 165 0.0 0.0 0.00 0.00 0.00 78 1015.0
20260831045455 84 165 0.0 0.0 0.00 0.00 0.00 77 1014.8
20260831044954 84 165 0.0 0.0 0.00 0.00 0.00 77 1014.9
20260831044455 84 165 0.0 0.0 0.00 0.00 0.00 76 1015.0
20260831043955 84 165 0.0 0.0 0.00 0.00 0.00 76 1014.9
20260831043455 84 165 0.0 0.0 0.00 0.00 0.00 76 1015.0
20260831042955 84 165 0.0 0.0 0.00 0.00 0.00 75 1014.8
20260831042455 84 165 0.0 0.0 0.00 0.00 0.00 75 1014.7
20260831041955 85 165 0.0 0.0 0.00 0.00 0.00 75 1014.8
20260831041455 85 165 0.0 0.0 0.00 0.00 0.00 74 1014.8
20260831040455 85 165 0.0 0.0 0.00 0.00 0.00 74 1014.7
20260831035955 85 165 0.0 0.0 0.00 0.00 0.00 73 1014.5
20260831035455 85 165 0.0 0.0 0.00 0.00 0.00 73 1014.6
20260831034955 85 165 0.0 1.0 0.00 0.00 0.00 72 1014.5
20260831034454 85 165 0.0 0.0 0.00 0.00 0.00 72 1014.3
20260831033955 86 165 0.0 0.0 0.00 0.00 0.00 71 1014.3
20260831033458 86 165 0.0 0.0 0.00 0.00 0.00 71 1014.5
20260831032955 86 165 0.0 0.0 0.00 0.00 0.00 70 1014.3
20260831032455 86 165 0.0 1.0 0.00 0.00 0.00 70 1014.3
20260831031955 86 165 0.0 0.0 0.00 0.00 0.00 70 1014.4
20260831031455 86 165 0.0 0.0 0.00 0.00 0.00 69 1014.2
20260831030955 86 165 0.0 1.0 0.00 0.00 0.00 69 1014.1
20260831030458 86 165 0.0 0.0 0.00 0.00 0.00 68 1014.1
20260831025954 87 165 0.0 1.0 0.00 0.00 0.00 68 1014.1
20260831025455 87 165 0.0 2.0 0.00 0.00 0.00 67 1014.1
20260831024955 87 165 0.0 0.0 0.00 0.00 0.00 67 1014.0
20260831024455 87 165 0.0 0.0 0.00 0.00 0.00 66 1013.8
20260831023955 87 165 0.0 0.0 0.00 0.00 0.00 65 1013.7
20260831023455 87 165 0.0 0.0 0.00 0.00 0.00 65 1013.7
20260831022954 88 165 0.0 0.0 0.00 0.00 0.00 64 1013.6
20260831022454 88 165 0.0 0.0 0.00 0.00 0.00 64 1013.5
20260831021955 88 165 0.0 0.0 0.00 0.00 0.00 63 1013.4
20260831021455 88 165 0.0 1.0 0.00 0.00 0.00 63 1013.3
20260831020958 88 165 0.0 0.0 0.00 0.00 0.00 63 1013.3
20260831020455 89 165 0.0 0.0 0.00 0.00 0.00 62 1013.2
20260831015955 89 165 0.0 0.0 0.00 0.00 0.00 61 1013.3
20260831015455 89 165 0.0 1.0 0.00 0.00 0.00 61 1013.1
20260831014955 89 165 0.0 1.0 0.00 0.00 0.00 61 1013.1
20260831014455 89 165 1.0 1.0 0.00 0.00 0.00 60 1013.1
20260831013955 90 166 0.0 2.0 0.00 0.00 0.00 60 1013.0
20260831013458 90 166 1.0 2.0 0.00 0.00 0.00 59 1013.1
20260831012955 90 166 0.0 0.0 0.00 0.00 0.00 58 1013.1
20260831012458 90 166 0.0 2.0 0.00 0.00 0.00 57 1013.2
20260831011955 91 166 0.0 1.0 0.00 0.00 0.00 57 1013.1
20260831011455 91 166 0.0 2.0 0.00 0.00 0.00 56 1013.0
20260831010955 91 166 1.0 1.0 0.00 0.00 0.00 56 1012.9
20260831010455 91 166 1.0 1.0 0.00 0.00 0.00 56 1012.9
20260831005954 91 166 1.0 2.0 0.00 0.00 0.00 56 1012.9
20260831005455 91 166 0.0 2.0 0.00 0.00 0.00 55 1012.8
20260831004955 92 166 0.0 1.0 0.00 0.00 0.00 55 1012.9
20260831004454 92 166 0.0 1.0 0.00 0.00 0.00 54 1012.8
20260831003958 92 166 0.0 2.0 0.00 0.00 0.00 52 1012.7
20260831003455 92 166 0.0 1.0 0.00 0.00 0.00 52 1012.7
20260831002954 92 166 0.0 2.0 0.00 0.00 0.00 51 1012.8
20260831002458 93 166 0.0 1.0 0.00 0.00 0.00 50 1012.8
20260831001954 93 166 1.0 1.0 0.00 0.00 0.00 50 1012.6
20260831001454 93 166 0.0 2.0 0.00 0.00 0.00 50 1012.6
20260831000955 93 166 0.0 2.0 0.00 0.00 0.00 50 1012.6
20260831000456 94 167 0.0 2.0 0.00 0.00 0.00 49 1012.7
20260830235954 94 167 0.0 1.0 0.00 0.00 0.00 49 1012.6
20260830235455 94 167 0.0 2.0 0.00 0.00 0.00 49 1012.5
20260830234954 94 167 1.0 2.0 0.00 0.00 0.00 49 1012.6
20260830234455 95 167 0.0 4.0 0.00 0.00 0.00 48 1012.6
20260830233955 95 13 0.0 2.0 0.00 0.00 0.00 48 1012.4
20260830233455 95 11 0.0 2.0 0.00 0.00 0.00 47 1012.4
20260830232958 96 122 0.0 2.0 0.00 0.00 0.00 46 1012.4
20260830232454 96 163 1.0 5.0 0.00 0.00 0.00 45 1012.3
20260830231955 97 130 1.0 4.0 0.00 0.00 0.00 45 1012.5
20260830231458 97 150 1.0 5.0 0.00 0.00 0.00 45 1012.6
20260830230954 98 28 0.0 5.0 0.00 0.00 0.00 45 1012.6
20260830230454 99 151 1.0 6.0 0.00 0.00 0.00 44 1012.5
20260830225954 100 163 1.0 5.0 0.00 0.00 0.00 42 1012.4
20260830225456 100 104 0.0 1.0 0.00 0.00 0.00 40 1012.5
20260830224954 100 99 0.0 1.0 0.00 0.00 0.00 40 1012.4
20260830224455 100 99 0.0 2.0 0.00 0.00 0.00 39 1012.5
20260830223954 100 103 1.0 2.0 0.00 0.00 0.00 40 1012.5
20260830223455 100 88 0.0 1.0 0.00 0.00 0.00 40 1012.5
20260830222955 99 82 0.0 3.0 0.00 0.00 0.00 40 1012.3
20260830222455 99 260 0.0 1.0 0.00 0.00 0.00 41 1012.3
20260830221958 98 260 0.0 0.0 0.00 0.00 0.00 41 1012.4
20260830221454 98 260 0.0 1.0 0.00 0.00 0.00 46 1012.4
20260830220954 97 260 0.0 1.0 0.00 0.00 0.00 41 1012.5
20260830220454 97 260 0.0 2.0 0.00 0.00 0.00 43 1012.5
20260830215955 97 263 0.0 1.0 0.00 0.00 0.00 42 1012.6
20260830215455 97 262 0.0 1.0 0.00 0.00 0.00 43 1012.6
20260830214956 97 262 0.0 0.0 0.00 0.00 0.00 43 1012.7
20260830214454 97 262 0.0 2.0 0.00 0.00 0.00 44 1012.7
20260830213954 97 259 0.0 2.0 0.00 0.00 0.00 43 1012.8
20260830213455 97 161 0.0 1.0 0.00 0.00 0.00 44 1012.8
20260830212954 97 161 0.0 1.0 0.00 0.00 0.00 44 1013.0
20260830212455 97 161 0.0 1.0 0.00 0.00 0.00 45 1012.9
20260830211958 97 161 1.0 2.0 0.00 0.00 0.00 44 1013.1
20260830211455 97 161 0.0 2.0 0.00 0.00 0.00 46 1013.2
20260830210954 98 162 2.0 4.0 0.00 0.00 0.00 45 1013.2
20260830210455 98 165 0.0 1.0 0.00 0.00 0.00 46 1013.3
20260830205954 98 165 0.0 2.0 0.00 0.00 0.00 44 1013.4
20260830205455 98 167 2.0 4.0 0.00 0.00 0.00 45 1013.5
20260830204954 98 158 0.0 1.0 0.00 0.00 0.00 44 1013.5
20260830204458 98 158 0.0 1.0 0.00 0.00 0.00 45 1013.5
20260830203954 98 158 0.0 2.0 0.00 0.00 0.00 44 1013.6
20260830203457 98 158 0.0 1.0 0.00 0.00 0.00 47 1013.5
20260830202955 98 158 0.0 4.0 0.00 0.00 0.00 44 1013.7
20260830202455 98 184 0.0 2.0 0.00 0.00 0.00 45 1013.8
20260830201954 98 161 0.0 2.0 0.00 0.00 0.00 47 1013.9
20260830201455 98 138 2.0 4.0 0.00 0.00 0.00 47 1013.9
20260830200956 98 184 2.0 2.0 0.00 0.00 0.00 48 1014.0
20260830200455 97 174 0.0 2.0 0.00 0.00 0.00 49 1014.1
20260830195955 97 192 1.0 2.0 0.00 0.00 0.00 48 1014.2
20260830195454 97 192 0.0 1.0 0.00 0.00 0.00 49 1014.3
20260830194954 97 192 0.0 2.0 0.00 0.00 0.00 47 1014.5
20260830194458 98 192 2.0 2.0 0.00 0.00 0.00 47 1014.6
20260830193955 97 192 0.0 2.0 0.00 0.00 0.00 48 1014.6
20260830193457 98 194 1.0 3.0 0.00 0.00 0.00 47 1014.8
20260830192955 98 194 1.0 3.0 0.00 0.00 0.00 47 1014.8
20260830192455 97 225 0.0 1.0 0.00 0.00 0.00 48 1015.0
20260830191955 97 226 1.0 1.0 0.00 0.00 0.00 50 1015.1
20260830191455 97 223 0.0 2.0 0.00 0.00 0.00 48 1015.1
20260830190954 97 223 0.0 1.0 0.00 0.00 0.00 50 1015.0
20260830190455 97 223 0.0 1.0 0.00 0.00 0.00 51 1015.1
20260830185954 97 223 0.0 2.0 0.00 0.00 0.00 49 1015.2
20260830185455 97 233 1.0 1.0 0.00 0.00 0.00 51 1015.2
20260830184955 96 233 0.0 2.0 0.00 0.00 0.00 50 1015.2
20260830184455 97 232 0.0 2.0 0.00 0.00 0.00 51 1015.2
20260830183958 97 94 0.0 2.0 0.00 0.00 0.00 51 1015.4
20260830183455 96 91 0.0 2.0 0.00 0.00 0.00 52 1015.7
20260830182955 96 202 0.0 2.0 0.00 0.00 0.00 51 1015.7
20260830182454 96 206 0.0 2.0 0.00 0.00 0.00 53 1015.6
20260830181954 96 202 2.0 2.0 0.00 0.00 0.00 53 1015.8
20260830181455 95 202 0.0 2.0 0.00 0.00 0.00 52 1016.0
20260830180955 95 202 0.0 2.0 0.00 0.00 0.00 54 1016.1
20260830180457 94 270 0.0 1.0 0.00 0.00 0.00 60 1016.1
20260830175954 93 270 0.0 1.0 0.00 0.00 0.00 57 1016.2
20260830175455 93 270 1.0 2.0 0.00 0.00 0.00 57 1016.4
20260830174955 93 270 2.0 2.0 0.00 0.00 0.00 57 1016.5
20260830174454 93 268 0.0 2.0 0.00 0.00 0.00 60 1016.5
20260830173955 94 268 0.0 2.0 0.00 0.00 0.00 58 1016.7
20260830173458 94 177 0.0 1.0 0.00 0.00 0.00 57 1016.7
20260830172958 94 175 1.0 2.0 0.00 0.00 0.00 57 1016.8
20260830172454 94 167 0.0 2.0 0.00 0.00 0.00 57 1016.8
20260830171955 94 182 1.0 1.0 0.00 0.00 0.00 58 1016.8
20260830171454 93 195 0.0 2.0 0.00 0.00 0.00 58 1016.7
20260830170954 93 195 1.0 2.0 0.00 0.00 0.00 59 1016.6
20260830170455 92 287 0.0 2.0 0.00 0.00 0.00 62 1016.6
20260830165955 92 287 2.0 3.0 0.00 0.00 0.00 64 1016.6
20260830165458 91 301 1.0 2.0 0.00 0.00 0.00 63 1016.7
20260830164954 91 338 0.0 2.0 0.00 0.00 0.00 63 1016.9